Location: Hains Lake
(37.8540°N, 99.8578°W)
Time: 07:24:33
(UTC+00:00)

Vanguard 3 - Pass Details

Date: 20 April 2021
Orbit: 508 x 3262 km, 33.3° (Epoch: 09 May)

Event Time Altitude Azimuth Distance (km) Brightness Sun altitude
Exits shadow 10:09:20 42° 171° (S) 724 6.7 -20.1°
Drops below altitude 10° 10:12:40 10° 109° (ESE) 1,759 9.4 -19.6°
Sets 10:15:04 0° 103° (ESE) 2,768 10.6 -19.2°
